User: anonymous   Login
Location: Lucerne Valley
(34.4439°N, 116.9669°E)
Time: 01:00:42
(UTC-07:00)
Language:

Tiangong 2 - Orbit

View from above orbital plane
View from above orbital plane
View from above satellite
View from above satellite

Ground track
Ground track

The orbit data is extracted from the following two-line orbital elements,

1 41765U 16057A   17295.81040509  .00006148  00000-0  80674-4 0  9991
2 41765  42.7843 316.6982 0002253  24.4522 314.1185 15.59270241 62893
Epoch (UTC): 22 October 2017 19:26:59
Eccentricity: 0.0002253
inclination: 42.7843°
perigee height: 388 km
apogee height: 391 km
right ascension of ascending node: 316.6982°
argument of perigee: 24.4522°
revolutions per day: 15.59270241
mean anomaly at epoch: 314.1185°
orbit number at epoch: 6289

The dashed part of the orbit path shows where the satellite is in the earth's shadow,  

DLR